Regional Weather Roundup
Issued by NWS New Orleans/Baton Rouge, LA

Home | Current Version | Previous Version | Text Only | Print | Product List | Glossary On
Versions: 1 2 3 4 5 6 7 8 9 10 11 12 13 14 15 16 17 18 19 20 21 22 23 24 25 26 27 28 29 30 31 32 33 34 35 36 37 38 39 40 41 42 43 44 45 46 47 48 49 50
000
ASUS44 KLIX 011511
RWRLIX
NEW ORLEANS REGIONAL WEATHER ROUNDUP
NATIONAL WEATHER SERVICE NEW ORLEANS LA
1000 AM CDT WED JUL 01 2015

NOTE: "FAIR" INDICATES FEW OR NO CLOUDS BELOW 12,000 FEET WITH NO
      SIGNIFICANT WEATHER AND/OR OBSTRUCTIONS TO VISIBILITY.
      SKY/WX - SKY CONDITION AND SIGNIFICANT WEATHER.
      TMP - AIR TEMPERATURE.     DP    - DEWPOINT TEMPERATURE.
      RH  - RELATIVE HUMIDITY.   PRES  - PRESSURE.
      HI  - HEAT INDEX.          WCI   - WIND CHILL INDEX.

*  THESE STATIONS ARE NOT NWS OR FAA STATIONS AND ARE NOT UNDER
   NWS QUALITY CONTROL.

LAZ038-040-048-061>063-065>067-069-011600-
SOUTHEAST LOUISIANA

CITY           SKY/WX    TMP DP  RH WIND       PRES   REMARKS
N.O. AUDUBON   NOT AVBL
N.O. INTL ARPT PTSUNNY   84  72  67 SW7       30.11S
N.O. LAKEFRONT MOSUNNY   87  71  58 NW5       30.12S
N.O. DOWNTOWN*   N/A     88  72  58 S8        30.12S
RESERVE*         N/A     86  74  68 SW7       30.11S
SLIDELL        SUNNY     85  73  67 SW6       30.11R
BATON ROUGE    SUNNY     84  75  74 SW9       30.11R
BOOTHVILLE     CLOUDY    85  76  74 S9        30.13R
BELLE CHASSE   PTSUNNY   84  73  69 SW6       30.11S
BOGALUSA*        N/A     84  69  59 SW5       30.13S
GALLIANO*      MOSUNNY   87  74  65 S6        30.12R HX  95
NEW ROADS*       N/A    N/A N/A N/A S5        30.11R
GONZALES*        N/A     84  76  76 S3        30.10S
HAMMOND*       SUNNY     84  68  58 SW3       30.13S
HOUMA*         PTSUNNY   84  77  79 S6        30.12R
PORT FOURCHON* SUNNY     86  75  70 S9        30.13R HX  95

$$

MSZ070-080>082-011600-
SOUTHERN MISSISSIPPI

CITY           SKY/WX    TMP DP  RH WIND       PRES   REMARKS
MCCOMB         SUNNY     81  73  76 VRB6      30.12S
GULFPORT       MOSUNNY   83  66  56 SW5       30.12R
BILOXI         MOSUNNY   84  70  62 W3        30.12S
PASCAGOULA     MOSUNNY   85  71  63 SW3       30.13R
STENNIS ARPT*  SUNNY     84  66  54 MISG      30.12S

$$

COASTAL OBSERVATIONS
LAKE AND NEARSHORE STATIONS

STATION/POSITION TIME  TEMP    WIND        PRES    WAVE
                       AIR SEA DIR/SP/G            HT/PER
                 (UTC) (F)     (DEG/KT/KT) (MB)    (FT/S)
PASCAGOULA       1400   82     270/  4/  5 1019.6
WAVELAND YACHT   1400   80 85   40/  1/  2 1019.9
GRAND ISLE       1400   85 84  200/  5/ 10 1019.6
SOUTHWEST PASS   1400   83 82  190/  5/  7 1020.1
NEW CANAL        1400   83 83  240/  2/  3 1018.8
SHELL BEACH      1400   81 83  200/  4/  5 1019.1

OFFSHORE STATIONS

STATION/POSITION TIME  TEMP    WIND        PRES    WAVE
                       AIR SEA DIR/SP/G            HT/PER
                 (UTC) (F)     (DEG/KT/KT) (MB)    (FT/S)
64 S DAUPHIN ISL 1450   84 85  200/  8/ 10 1020.7    1/ 6

$$



USA.gov is the U.S. government's official web portal to all federal, state and local government web resources and services.